Airfield :
LOGIN :

Register | Disclaimer

   EN    FR    IT 

 










Legend :    VFR   Marginal VFR   IFR   Intensive IFR   Very Intensive IFR
Visi :
Ceiling :
>= 8 km
>= 3000ft
5 to 8 km
1000 to 3000 ft
1500m to 5 km
500 to 1000 ft
800 to 1500m
200 to 500 ft
< 800m
< 200 ft
Symbols :   Thunderstorms  Fog  Heavy snow  Heavy precipitations  Wind > 20 kt
SIGMETs :     Misc.  Thunderstorms  Icing  Turbulence  Mountain Waves  Volcanic Ashes







- Airport Elevation : 26 ft
- IATA code : BIA
- Download approach charts


LFKB - Bastia

CURRENT METAR :
  • 230700Z AUTO 01015KT 8000 FEW043 18/10 Q1022 BECMG 24008KT

EXPIRED METARs :
  • 230630Z AUTO 02009KT CAVOK 17/10 Q1022 NOSIG
  • 230600Z AUTO 01011KT 9999 FEW046 17/09 Q1021 BECMG 24008KT
  • 230530Z AUTO 33006KT 260V020 9999 SCT046 BKN052 15/11 Q1021 NOSIG
  • 230500Z AUTO 21004KT 120V260 9999 FEW048 11/08 Q1021 NOSIG
  • 230430Z AUTO 23004KT 170V340 CAVOK 11/08 Q1021 NOSIG

TAF TAF LFKB
Valid from the 23 at 03:00 until the 24 at 03:00 UTC


230200Z 2303/2403 24008KT CAVOK TX22/2313Z TN11/2304Z
BECMG 2316/2318 VRB05KT
ATIS : +33 4 95 59 19 40
No reported NOTAMs for that airfield.



MET'MAP, your aeronautical weather chart ! - Copyright ORBIFLY December 2007 - Disclaimer

ORBIFLY MET'MAP TEAM :

Programming & Development : Alexandra Zaïnal
Concept & Development : Baudouin d'Aumeries
Co-Development & Prog : Marc-Olivier Méhu
Technical & hardware support : Manuel Goepfert

Contact : metmap@orbifly.com




SOURCES & CREDITS :

   NOAA